Regional Weather Roundup
Issued by NWS

Home | Current Version | Previous Version | Text Only | Print | Product List | Glossary Off
Versions: 1 2 3 4 5 6 7 8 9 10 11 12 13 14 15 16 17 18 19 20 21 22 23 24 25 26 27 28 29 30 31 32 33 34 35 36 37 38 39 40 41 42 43 44 45 46 47 48

000
ASUS43 KDMX 042007
RWRIA

WEATHER ROUNDUP FOR IOWA
NATIONAL WEATHER SERVICE DES MOINES IA
300 PM CDT SAT JUL 04 2015

NOTE: "FAIR" INDICATES FEW OR NO CLOUDS BELOW 12,000 FEET WITH NO
SIGNIFICANT WEATHER AND/OR OBSTRUCTIONS TO VISIBILITY.

* - THESE STATIONS ARE NOT NWS STATIONS...THUS NOT UNDER NWS
QUALITY CONTROL.  THEY ALSO DO NOT REPORT WEATHER SUCH
AS PRECIPITATION OR FOG.

IAZ001>003-012>014-020>022-031>034-043>046-042100-
   NORTHWEST IOWA

CITY           SKY/WX    TMP DP  RH WIND       PRES   REMARKS
CARROLL *      SUNNY     81  55  41 S13       29.98F HX  80
CHEROKEE *     MOSUNNY   79  64  61 S13       29.97S HX  81
DENISON *      SUNNY     79  59  50 VRB6G15   29.96F HX  80
LE MARS *      MOSUNNY   79  66  65 S14       29.95F HX  81
ORANGE CITY *  SUNNY     79  63  57 S10       29.96F HX  80
SHELDON *      SUNNY     79  66  65 S10G16    29.95F HX  81
SIOUX CITY     PTSUNNY   81  64  56 S13       29.95F HX  82
SPENCER        MOSUNNY   80  60  50 S10       29.97F HX  81
STORM LAKE *   SUNNY     79  59  50 S10       29.99S HX  80
$$

IAZ055>058-069>071-079>083-090>094-042100-
   SOUTHWEST IOWA

CITY           SKY/WX    TMP DP  RH WIND       PRES   REMARKS
ATLANTIC *     SUNNY     81  59  47 SW8G15    29.98F HX  81
AUDUBON *      SUNNY     81  61  50 S8        30.00S HX  81
CLARINDA *     SUNNY     82  59  44 SE8       30.00F HX  82
COUNCIL BLFS * SUNNY     79  63  57 S9        29.98F HX  80
CRESTON *      SUNNY     79  57  47 S9        30.01S HX  80
HARLAN  *      SUNNY     79  63  57 S10       30.02S HX  80
LAMONI         SUNNY     81  59  47 S8        30.01S HX  81
RED OAK *      SUNNY     81  61  50 S10       29.99S HX  81
SHENANDOAH *   SUNNY     81  61  50 S7        29.99S HX  81
$$

IAZ047>049-059>061-072>074-084-042100-
   CENTRAL IOWA

CITY           SKY/WX    TMP DP  RH WIND       PRES   REMARKS
AMES           MOSUNNY   79  58  48 S6        29.99F HX  80
ANKENY *       SUNNY     81  61  50 S10       29.99S HX  81
CHARITON *     SUNNY     79  59  50 CALM      30.00F HX  80
DES MOINES     PTSUNNY   81  57  43 S8        29.99S HX  81
GRINNELL*      SUNNY     77  61  57 S8        30.02S
KNOXVILLE *    SUNNY     79  57  47 S8        29.99F HX  80
MARSHALLTOWN   SUNNY     79  60  52 S10       29.99F HX  80
PELLA *        SUNNY     81  63  54 SE6       30.01F HX  82
PERRY *          N/A     81  59  47 S5        29.99F HX  81
$$

IAZ004>006-015-016-023>025-035-036-042100-
   NORTH CENTRAL IOWA

CITY           SKY/WX    TMP DP  RH WIND       PRES   REMARKS
ALGONA *       SUNNY     79  61  53 SW12      29.98S HX  80
CLARION *      SUNNY     79  57  47 SW7       29.99S HX  80
ESTHERVILLE    PTSUNNY   79  63  57 S8G17     29.97S HX  80
FORT DODGE *   MOSUNNY   81  57  44 S9        29.99F HX  81
MASON CITY     SUNNY     80  61  52 SW10      30.00F HX  81
FOREST CITY *  SUNNY     77  59  53 S10       29.98F
IOWA FALLS *     N/A     79  59  50 S7        30.01S HX  80
$$

IAZ007>011-017>019-026>030-037>042-050>054-066-042100-
   NORTHEAST IOWA

CITY           SKY/WX    TMP DP  RH WIND       PRES   REMARKS
CEDAR RAPIDS   MOSUNNY   78  62  57 SW5       30.00F HX  80
CHARLES CITY * SUNNY     79  64  61 SW9       30.00S HX  81
CLINTON *      MOSUNNY   79  61  53 SW6       30.03F HX  80
DECORAH *        N/A    N/A N/A N/A MISG        N/A
DUBUQUE        SUNNY     78  60  53 SW9       30.01S
MONTICELLO *   MOSUNNY   79  61  53 SW7G13    30.00S HX  80
OELWEIN *      SUNNY     79  61  53 SW10      30.01S HX  80
WATERLOO       SUNNY     81  58  45 S9        29.99S HX  81
$$

IAZ064-065-067-068-078-042100-
   EAST CENTRAL IOWA

CITY           SKY/WX    TMP DP  RH WIND       PRES   REMARKS
DAVENPORT      SUNNY     79  61  53 VRB6      30.01F HX  80
IOWA CITY      MOSUNNY   80  61  52 CALM      30.01F HX  81
MT. PLEASANT * SUNNY     82  54  36 SW5       30.01F HX  81
MUSCATINE *    SUNNY     81  57  44 SW6       30.01S HX  81
QUAD CITIES    SUNNY     80  60  50 MISG      30.00F HX  81
$$

IAZ062-063-075>077-085>089-095>099-042100-
   SOUTHEAST IOWA

CITY           SKY/WX    TMP DP  RH WIND       PRES   REMARKS
BURLINGTON     SUNNY     79  62  56 VRB5      30.01S HX  80
FAIRFIELD *    SUNNY     79  59  50 CALM      30.01F HX  80
FORT MADISON * SUNNY     79  63  57 S3        30.03S HX  80
KEOKUK *       SUNNY     79  61  53 SE7       30.01S HX  80
OSKALOOSA *      N/A     79  61  53 S5        30.01F HX  80
CENTERVILLE *  SUNNY     77  59  53 SE7       30.02F
OTTUMWA        SUNNY     78  62  57 S7        29.99F HX  80
WASHINGTON *   SUNNY     79  61  53 CALM      30.03S HX  80
$$

ABBREVIATIONS USED IN REMARKS
   TC - TEMPERATURES IN CELSIUS
  WCI - WIND CHILL INDEX
   HX - HEAT INDEX
  VSB - VISIBILITY
$$



USA.gov is the U.S. government's official web portal to all federal, state and local government web resources and services.